User: anonymous   Login
Location: Fort Frances
(48.6170°N, 93.4170°W)
Time: 17:34:34
(UTC-05:00)
Language:

CZ-2C R/B - Orbit

View from above orbital plane
View from above orbital plane
View from above satellite
View from above satellite

Ground track
Ground track

The orbit data is extracted from the following two-line orbital elements,

1 36089U 09061B   17231.11097858  .00000057  00000-0  25612-4 0  9997
2 36089  98.0543 230.1251 0081337 211.1560 199.7666 14.49674839410823
Epoch (UTC): 19 August 2017 02:39:48
Eccentricity: 0.0081337
inclination: 98.0543°
perigee height: 669 km
apogee height: 784 km
right ascension of ascending node: 230.1251°
argument of perigee: 211.1560°
revolutions per day: 14.49674839
mean anomaly at epoch: 199.7666°
orbit number at epoch: 41082

The dashed part of the orbit path shows where the satellite is in the earth's shadow,  

DLR